Dades meteomassalio
Diari Summary for Maig 5, 2017 Units:  English    Metric   Both
« Previous Day
Next Day »
Diari Semanal Mensual Anual Personalitzat
  Maxima: Minima: Mijana:
Temperatura: TemperatureC °F 12.9 °F 17.4 °F
Rosada: DewpointC °F 8.2 °F 11 °F
Humitat: Humidity % 42 % 68 %
Velocitat del vent: WindSpeedKMH mph 0.0 mph 11.8 mph
Racha vent: WindSpeedGustKMH mph - -
Vent:- - ESE
Pressio: PressurehPa in 1007.0 in -
Pluja: 0.0 in    
Historical Graphs
 
 
Tabular Data for Maig 5, 2017
Time Temperature Dew Point Pressure Wind Wind Speed Wind Gust Humidity Rainfall Rate (Hourly) solar Conditions
TemperatureC °F DewpointC °F PressurehPa in Calm     Humidity % HourlyPrecipMM in SolarRadiationWatts/m^2 W/m2 Conditions
00:03 16.4 °F 12.3 °F 1010.7 in SSE 4.8 mph 4.8 mph 77 % 0.0 in 0.0 W/m2 CLR
00:08 16.4 °F 12.3 °F 1010.7 in Calm     77 % 0.0 in 0.0 W/m2 CLR
00:13 16.4 °F 12.3 °F 1010.7 in Calm     77 % 0.0 in 0.0 W/m2 CLR
00:18 16.4 °F 12.4 °F 1010.7 in Calm     77 % 0.0 in 0.0 W/m2 CLR
00:23 16.4 °F 12.4 °F 1011.1 in Calm     77 % 0.0 in 0.0 W/m2 CLR
00:28 16.4 °F 12.4 °F 1011.1 in Calm     77 % 0.0 in 0.0 W/m2 CLR
00:33 16.3 °F 12.3 °F 1010.7 in Calm     77 % 0.0 in 0.0 W/m2 CLR
00:38 16.2 °F 12.2 °F 1011.1 in Calm     77 % 0.0 in 0.0 W/m2 CLR
00:43 16.1 °F 12.3 °F 1011.1 in Calm     78 % 0.0 in 0.0 W/m2 CLR
00:48 16.1 °F 12.4 °F 1010.7 in Calm     79 % 0.0 in 0.0 W/m2 CLR
00:53 15.9 °F 12.3 °F 1010.7 in Calm     79 % 0.0 in 0.0 W/m2 CLR
00:58 15.9 °F 12.2 °F 1010.7 in Calm     79 % 0.0 in 0.0 W/m2 CLR
01:03 15.8 °F 12.2 °F 1010.7 in Calm     79 % 0.0 in 0.0 W/m2 CLR
01:08 15.7 °F 12.3 °F 1010.7 in Calm     80 % 0.0 in 0.0 W/m2 CLR
01:13 15.6 °F 12.2 °F 1010.7 in Calm     80 % 0.0 in 0.0 W/m2 CLR
01:18 15.6 °F 12.3 °F 1010.7 in Calm     81 % 0.0 in 0.0 W/m2 CLR
01:23 15.4 °F 12.2 °F 1010.7 in Calm     81 % 0.0 in 0.0 W/m2 CLR
01:28 15.3 °F 12.1 °F 1010.7 in Calm     81 % 0.0 in 0.0 W/m2 CLR
01:33 15.2 °F 12.2 °F 1010.7 in Calm     82 % 0.0 in 0.0 W/m2 CLR
01:38 15.1 °F 12.1 °F 1010.7 in Calm     82 % 0.0 in 0.0 W/m2 CLR
01:43 15.1 °F 12.2 °F 1010.7 in Calm     83 % 0.0 in 0.0 W/m2 CLR
01:48 15.0 °F 12.1 °F 1010.7 in Calm     83 % 0.0 in 0.0 W/m2 CLR
01:53 14.9 °F 12.1 °F 1010.7 in Calm     83 % 0.0 in 0.0 W/m2 CLR
01:58 14.9 °F 12.0 °F 1010.7 in Calm     83 % 0.0 in 0.0 W/m2 CLR
02:03 14.8 °F 12.2 °F 1010.7 in Calm     84 % 0.0 in 0.0 W/m2 CLR
02:08 14.8 °F 12.1 °F 1010.7 in Calm     84 % 0.0 in 0.0 W/m2 CLR
02:13 14.7 °F 12.1 °F 1010.7 in Calm     84 % 0.0 in 0.0 W/m2 CLR
02:18 14.7 °F 12.0 °F 1010.7 in Calm     84 % 0.0 in 0.0 W/m2 CLR
02:23 14.7 °F 12.2 °F 1010.7 in Calm     85 % 0.0 in 0.0 W/m2 CLR
02:28 14.7 °F 12.0 °F 1010.7 in Calm     84 % 0.0 in 0.0 W/m2 CLR
02:33 14.6 °F 11.9 °F 1010.4 in Calm     84 % 0.0 in 0.0 W/m2 CLR
02:38 14.6 °F 12.1 °F 1010.4 in ENE 3.7 mph 3.7 mph 85 % 0.0 in 0.0 W/m2 CLR
02:43 14.6 °F 11.9 °F 1010.4 in Calm     84 % 0.0 in 0.0 W/m2 CLR
02:48 14.5 °F 11.8 °F 1010.4 in Calm     84 % 0.0 in 0.0 W/m2 CLR
02:53 14.4 °F 11.9 °F 1010.4 in Calm     85 % 0.0 in 0.0 W/m2 CLR
02:58 14.4 °F 11.9 °F 1010.4 in ESE 5.6 mph 5.6 mph 85 % 0.0 in 0.0 W/m2 CLR
03:03 14.5 °F 12.0 °F 1010.0 in Calm     85 % 0.0 in 0.0 W/m2 CLR
03:08 14.5 °F 11.8 °F 1010.4 in Calm     84 % 0.0 in 0.0 W/m2 CLR
03:13 14.4 °F 11.8 °F 1010.4 in Calm     84 % 0.0 in 0.0 W/m2 CLR
03:18 14.4 °F 11.8 °F 1010.0 in Calm     84 % 0.0 in 0.0 W/m2 CLR
03:23 14.3 °F 11.7 °F 1010.0 in Calm     84 % 0.0 in 0.0 W/m2 CLR
03:28 14.2 °F 11.6 °F 1010.0 in Calm     84 % 0.0 in 0.0 W/m2 CLR
03:33 14.2 °F 11.5 °F 1009.7 in Calm     84 % 0.0 in 0.0 W/m2 CLR
03:38 14.1 °F 11.4 °F 1010.0 in Calm     84 % 0.0 in 0.0 W/m2 CLR
03:43 14.1 °F 11.4 °F 1009.7 in Calm     84 % 0.0 in 0.0 W/m2 CLR
03:48 14.0 °F 11.3 °F 1010.0 in Calm     84 % 0.0 in 0.0 W/m2 CLR
03:53 13.8 °F 11.2 °F 1010.0 in Calm     84 % 0.0 in 0.0 W/m2 CLR
03:58 13.8 °F 11.3 °F 1010.0 in Calm     85 % 0.0 in 0.0 W/m2 CLR
04:03 13.9 °F 11.2 °F 1010.0 in Calm     84 % 0.0 in 0.0 W/m2 CLR
04:09 14.1 °F 11.4 °F 1010.0 in Calm   0.5 mph 84 % 0.0 in 0.0 W/m2 CLR
04:14 14.1 °F 11.3 °F 1009.7 in Calm     83 % 0.0 in 0.0 W/m2 CLR
04:19 14.1 °F 11.4 °F 1010.0 in Calm     84 % 0.0 in 0.0 W/m2 CLR
04:24 14.1 °F 11.4 °F 1010.0 in Calm     84 % 0.0 in 0.0 W/m2 CLR
04:29 13.9 °F 10.9 °F 1010.0 in Calm     82 % 0.0 in 0.0 W/m2 CLR
04:34 13.8 °F 10.9 °F 1010.0 in Calm     83 % 0.0 in 0.0 W/m2 CLR
04:39 13.7 °F 11.1 °F 1010.0 in Calm     84 % 0.0 in 0.0 W/m2 CLR
04:44 13.7 °F 11.0 °F 1010.0 in Calm     84 % 0.0 in 0.0 W/m2 CLR
04:49 13.6 °F 10.9 °F 1010.0 in Calm     84 % 0.0 in 0.0 W/m2 CLR
04:54 13.5 °F 10.8 °F 1010.0 in Calm     84 % 0.0 in 0.0 W/m2 CLR
04:59 13.5 °F 11.0 °F 1010.0 in Calm     85 % 0.0 in 0.0 W/m2 CLR
05:04 13.4 °F 10.7 °F 1010.4 in Calm     84 % 0.0 in 0.0 W/m2 CLR
05:09 13.3 °F 10.6 °F 1010.0 in Calm     84 % 0.0 in 0.0 W/m2 CLR
05:14 13.2 °F 10.8 °F 1010.4 in Calm     85 % 0.0 in 0.0 W/m2 CLR
05:19 13.2 °F 10.7 °F 1010.4 in Calm     85 % 0.0 in 0.0 W/m2 CLR
05:24 13.2 °F 10.7 °F 1010.4 in Calm     85 % 0.0 in 0.0 W/m2 CLR
05:29 13.1 °F 10.6 °F 1010.4 in Calm     85 % 0.0 in 0.0 W/m2 CLR
05:34 13.1 °F 10.6 °F 1010.4 in Calm     85 % 0.0 in 0.0 W/m2 CLR
05:39 13.0 °F 10.6 °F 1010.4 in Calm     85 % 0.0 in 0.0 W/m2 CLR
05:44 13.0 °F 10.6 °F 1010.4 in Calm     85 % 0.0 in 0.0 W/m2 CLR
05:49 12.9 °F 10.5 °F 1010.0 in Calm     85 % 0.0 in 0.0 W/m2 CLR
05:54 12.9 °F 10.5 °F 1010.0 in Calm     85 % 0.0 in 0.0 W/m2 CLR
05:59 12.9 °F 10.4 °F 1010.0 in NE 5.6 mph 5.6 mph 85 % 0.0 in 0.0 W/m2 CLR
06:04 13.0 °F 10.6 °F 1010.0 in East 5.6 mph 5.6 mph 85 % 0.0 in 0.0 W/m2 CLR
06:09 13.1 °F 10.7 °F 1010.0 in Calm     85 % 0.0 in 0.0 W/m2 CLR
06:14 13.2 °F 10.5 °F 1010.0 in Calm     84 % 0.0 in 0.0 W/m2 CLR
06:19 13.1 °F 10.2 °F 1010.0 in Calm     83 % 0.0 in 0.0 W/m2 CLR
06:24 12.9 °F 10.1 °F 1010.0 in Calm     83 % 0.0 in 0.0 W/m2 CLR
06:29 12.9 °F 10.3 °F 1010.0 in Calm     84 % 0.0 in 0.0 W/m2 CLR
06:34 13.1 °F 10.4 °F 1010.0 in Calm     84 % 0.0 in 0.0 W/m2 CLR
06:39 13.0 °F 10.3 °F 1010.0 in NNE 5.6 mph 5.6 mph 84 % 0.0 in 0.0 W/m2 CLR
06:44 13.1 °F 10.4 °F 1009.7 in Calm     84 % 0.0 in 0.0 W/m2 OVC
06:49 13.2 °F 10.5 °F 1009.7 in Calm     84 % 0.0 in 0.0 W/m2 OVC
06:54 13.2 °F 10.6 °F 1010.0 in Calm     84 % 0.0 in 0.0 W/m2 OVC
06:59 13.2 °F 10.6 °F 1009.7 in Calm     84 % 0.0 in 0.0 W/m2 OVC
07:04 13.3 °F 10.7 °F 1010.0 in ESE 1.9 mph   84 % 0.0 in 5.0 W/m2 OVC
07:09 13.4 °F 10.8 °F 1009.7 in Calm     84 % 0.0 in 9.0 W/m2 BKN
07:14 13.5 °F 10.8 °F 1009.7 in SE 9.3 mph 9.3 mph 84 % 0.0 in 12.0 W/m2 BKN
07:19 13.6 °F 10.9 °F 1009.7 in ESE 9.3 mph 9.3 mph 84 % 0.0 in 14.0 W/m2 BKN
07:24 13.6 °F 10.8 °F 1009.7 in ESE 16.7 mph 16.7 mph 83 % 0.0 in 18.0 W/m2 BKN
07:29 13.7 °F 10.9 °F 1009.7 in SE 14.8 mph 14.8 mph 83 % 0.0 in 19.0 W/m2 BKN
07:34 13.8 °F 10.9 °F 1009.4 in SE 11.1 mph 11.1 mph 83 % 0.0 in 21.0 W/m2 BKN
07:39 13.8 °F 10.9 °F 1009.7 in SE 7.4 mph 7.4 mph 83 % 0.0 in 21.0 W/m2 BKN
07:44 13.8 °F 11.0 °F 1010.0 in Calm     83 % 0.0 in 23.0 W/m2 BKN
07:49 13.9 °F 10.9 °F 1010.0 in Calm     82 % 0.0 in 26.0 W/m2 BKN
07:54 13.9 °F 10.9 °F 1010.0 in ESE 5.6 mph 5.6 mph 82 % 0.0 in 39.0 W/m2 BKN
07:59 14.1 °F 11.1 °F 1010.0 in ENE 5.6 mph 5.6 mph 82 % 0.0 in 63.0 W/m2 BKN
08:04 14.0 °F 11.0 °F 1010.0 in Calm     82 % 0.0 in 135.0 W/m2 SCT
08:09 14.2 °F 11.3 °F 1010.0 in Calm     83 % 0.0 in 167.0 W/m2 CLR
08:14 14.4 °F 11.3 °F 1010.4 in Calm     82 % 0.0 in 125.0 W/m2 CLR
08:20 14.6 °F 11.4 °F 1010.4 in Calm     81 % 0.0 in 209.0 W/m2 CLR
08:25 14.9 °F 11.4 °F 1010.7 in Calm     80 % 0.0 in 204.0 W/m2 CLR
08:30 15.2 °F 11.4 °F 1010.7 in ENE 1.9 mph 5.0 mph 78 % 0.0 in 139.0 W/m2 CLR
08:35 15.3 °F 11.1 °F 1010.7 in NE 5.6 mph   76 % 0.0 in 121.0 W/m2 CLR
08:40 15.4 °F 10.8 °F 1011.4 in ENE 5.6 mph 5.6 mph 74 % 0.0 in 171.0 W/m2 CLR
08:45 15.6 °F 10.7 °F 1011.4 in ENE 3.2 mph   73 % 0.0 in 239.0 W/m2 CLR
08:50 15.8 °F 10.6 °F 1011.7 in Calm     71 % 0.0 in 236.0 W/m2 CLR
08:55 16.1 °F 10.8 °F 1011.7 in Calm     71 % 0.0 in 311.0 W/m2 CLR
09:00 16.3 °F 10.8 °F 1011.7 in Calm     70 % 0.0 in 271.0 W/m2 CLR
09:05 16.4 °F 10.5 °F 1012.1 in Calm     68 % 0.0 in 257.0 W/m2 CLR
09:10 16.4 °F 10.7 °F 1011.7 in Calm     69 % 0.0 in 178.0 W/m2 CLR
09:15 16.4 °F 10.5 °F 1012.1 in Calm     68 % 0.0 in 156.0 W/m2 CLR
09:20 16.4 °F 10.7 °F 1012.1 in Calm     69 % 0.0 in 156.0 W/m2 CLR
09:25 16.7 °F 10.9 °F 1012.1 in Calm     69 % 0.0 in 237.0 W/m2 CLR
09:30 16.9 °F 10.8 °F 1012.1 in Calm     67 % 0.0 in 199.0 W/m2 CLR
09:35 17.2 °F 11.1 °F 1012.4 in Calm     67 % 0.0 in 432.0 W/m2 CLR
09:40 17.4 °F 11.2 °F 1012.8 in Calm     67 % 0.0 in 167.0 W/m2 CLR
09:45 17.4 °F 11.0 °F 1012.8 in Calm     66 % 0.0 in 186.0 W/m2 CLR
09:50 17.4 °F 11.2 °F 1012.8 in Calm     67 % 0.0 in 262.0 W/m2 CLR
09:55 17.6 °F 11.3 °F 1012.8 in Calm     67 % 0.0 in 515.0 W/m2 CLR
10:00 17.8 °F 11.2 °F 1012.8 in SW 5.6 mph 5.6 mph 65 % 0.0 in 548.0 W/m2 CLR
10:05 17.8 °F 11.1 °F 1012.4 in Calm     65 % 0.0 in 364.0 W/m2 CLR
10:10 17.7 °F 11.1 °F 1012.8 in Calm     65 % 0.0 in 218.0 W/m2 CLR
10:15 17.8 °F 11.1 °F 1012.4 in ESE 6.4 mph 6.4 mph 65 % 0.0 in 234.0 W/m2 CLR
10:20 17.8 °F 10.9 °F 1012.1 in ESE 5.6 mph 5.6 mph 64 % 0.0 in 158.0 W/m2 CLR
10:25 17.8 °F 11.2 °F 1011.7 in ESE 11.1 mph 11.1 mph 65 % 0.0 in 162.0 W/m2 CLR
10:30 17.8 °F 11.2 °F 1011.7 in ENE 1.9 mph   65 % 0.0 in 165.0 W/m2 CLR
10:35 17.9 °F 11.5 °F 1011.7 in ENE 4.8 mph 4.8 mph 66 % 0.0 in 116.0 W/m2 CLR
10:40 18.0 °F 11.3 °F 1011.7 in ESE 14.8 mph 14.8 mph 65 % 0.0 in 107.0 W/m2 CLR
10:45 17.9 °F 11.2 °F 1011.7 in ENE 18.5 mph 18.5 mph 65 % 0.0 in 97.0 W/m2 CLR
10:50 17.8 °F 11.2 °F 1011.4 in East 18.5 mph 18.5 mph 65 % 0.0 in 97.0 W/m2 CLR
10:55 17.7 °F 11.2 °F 1011.7 in ESE 18.5 mph 18.5 mph 66 % 0.0 in 116.0 W/m2 CLR
11:00 17.7 °F 11.4 °F 1011.4 in East 12.9 mph 12.9 mph 67 % 0.0 in 116.0 W/m2 CLR
11:05 17.6 °F 11.4 °F 1011.1 in ESE 13.0 mph 13.0 mph 67 % 0.0 in 162.0 W/m2 CLR
11:10 17.6 °F 11.4 °F 1010.7 in ESE 22.2 mph 22.2 mph 67 % 0.0 in 248.0 W/m2 CLR
11:15 17.7 °F 11.2 °F 1011.1 in ESE 18.5 mph 18.5 mph 66 % 0.0 in 255.0 W/m2 CLR
11:20 17.7 °F 11.5 °F 1010.7 in ESE 14.8 mph 14.8 mph 67 % 0.0 in 281.0 W/m2 CLR
11:25 17.8 °F 11.4 °F 1010.7 in SE 22.2 mph 22.2 mph 66 % 0.0 in 376.0 W/m2 CLR
11:31 18.3 °F 11.6 °F 1010.7 in East 25.9 mph 25.9 mph 65 % 0.0 in 536.0 W/m2 CLR
11:36 18.8 °F 11.4 °F 1010.4 in ESE 29.6 mph 29.6 mph 62 % 0.0 in 740.0 W/m2 CLR
11:41 18.6 °F 11.2 °F 1010.0 in SE 25.9 mph 25.9 mph 62 % 0.0 in 334.0 W/m2 CLR
11:46 18.6 °F 11.1 °F 1010.0 in ESE 24.1 mph 24.1 mph 62 % 0.0 in 380.0 W/m2 CLR
11:51 18.4 °F 11.0 °F 1010.0 in SE 25.9 mph 25.9 mph 62 % 0.0 in 325.0 W/m2 CLR
11:56 18.6 °F 11.4 °F 1010.0 in SE 9.7 mph 9.7 mph 63 % 0.0 in 323.0 W/m2 CLR
12:01 18.9 °F 11.2 °F 1009.7 in SE 24.1 mph 24.1 mph 61 % 0.0 in 334.0 W/m2 CLR
12:06 18.8 °F 11.4 °F 1009.7 in ESE 20.4 mph 20.4 mph 62 % 0.0 in 397.0 W/m2 CLR
12:11 19.1 °F 11.6 °F 1009.4 in East 20.4 mph 20.4 mph 62 % 0.0 in 540.0 W/m2 CLR
12:16 19.3 °F 11.6 °F 1009.4 in ESE 20.4 mph 20.4 mph 61 % 0.0 in 585.0 W/m2 CLR
12:21 19.6 °F 11.8 °F 1009.4 in ESE 18.5 mph 18.5 mph 61 % 0.0 in 411.0 W/m2 CLR
12:26 19.6 °F 11.9 °F 1009.4 in SE 14.8 mph 14.8 mph 61 % 0.0 in 352.0 W/m2 CLR
12:36 19.7 °F 11.7 °F 1009.4 in East 24.1 mph 24.1 mph 60 % 0.0 in 432.0 W/m2 CLR
12:41 19.5 °F 11.5 °F 1009.4 in East 29.6 mph 29.6 mph 60 % 0.0 in 415.0 W/m2 CLR
12:46 19.7 °F 11.7 °F 1009.4 in ESE 24.1 mph 24.1 mph 60 % 0.0 in 496.0 W/m2 CLR
12:51 19.9 °F 11.9 °F 1009.4 in ESE 16.7 mph 16.7 mph 60 % 0.0 in 849.0 W/m2 CLR
12:56 20.1 °F 11.8 °F 1009.4 in ENE 18.5 mph 18.5 mph 59 % 0.0 in 543.0 W/m2 CLR
13:01 20.2 °F 11.9 °F 1009.4 in East 20.4 mph 20.4 mph 59 % 0.0 in 666.0 W/m2 CLR
13:06 20.5 °F 11.7 °F 1009.4 in SE 24.1 mph 24.1 mph 57 % 0.0 in 404.0 W/m2 CLR
13:11 20.8 °F 11.4 °F 1009.4 in SE 29.6 mph 29.6 mph 55 % 0.0 in 513.0 W/m2 CLR
13:16 21.3 °F 11.3 °F 1009.4 in SSE 27.8 mph 27.8 mph 53 % 0.0 in 835.0 W/m2 CLR
13:21 21.5 °F 11.5 °F 1009.4 in SE 22.2 mph 22.2 mph 53 % 0.0 in 944.0 W/m2 CLR
13:26 21.7 °F 11.4 °F 1009.4 in SE 18.5 mph 18.5 mph 52 % 0.0 in 944.0 W/m2 CLR
13:31 22.1 °F 11.2 °F 1009.0 in East 27.8 mph 27.8 mph 50 % 0.0 in 705.0 W/m2 CLR
13:36 22.3 °F 10.8 °F 1009.0 in ESE 25.9 mph 25.9 mph 48 % 0.0 in 1035.0 W/m2 CLR
13:41 22.8 °F 10.9 °F 1009.0 in SE 33.3 mph 33.3 mph 47 % 0.0 in 1021.0 W/m2 CLR
13:46 22.3 °F 9.4 °F 1009.4 in SE 35.2 mph 35.2 mph 44 % 0.0 in 967.0 W/m2 CLR
13:51 22.0 °F 9.8 °F 1009.4 in SE 27.8 mph 27.8 mph 46 % 0.0 in 921.0 W/m2 CLR
13:56 21.8 °F 9.7 °F 1009.0 in SE 38.9 mph 38.9 mph 46 % 0.0 in 911.0 W/m2 CLR
14:01 21.9 °F 9.7 °F 1009.4 in SE 44.4 mph 44.4 mph 46 % 0.0 in 904.0 W/m2 CLR
14:06 21.7 °F 9.8 °F 1009.4 in SE 25.9 mph 25.9 mph 47 % 0.0 in 909.0 W/m2 CLR
14:11 21.6 °F 9.8 °F 1009.0 in SE 24.1 mph 24.1 mph 47 % 0.0 in 898.0 W/m2 CLR
14:16 22.1 °F 9.9 °F 1009.4 in SE 31.5 mph 31.5 mph 46 % 0.0 in 884.0 W/m2 CLR
14:21 22.0 °F 8.8 °F 1009.4 in ESE 37.0 mph 37.0 mph 43 % 0.0 in 882.0 W/m2 CLR
14:26 22.1 °F 9.2 °F 1009.0 in SE 31.5 mph 31.5 mph 44 % 0.0 in 877.0 W/m2 CLR
14:31 22.2 °F 9.1 °F 1009.4 in SE 31.5 mph 31.5 mph 43 % 0.0 in 877.0 W/m2 CLR
14:36 21.9 °F 9.1 °F 1009.4 in SE 37.0 mph 37.0 mph 44 % 0.0 in 881.0 W/m2 CLR
14:41 21.8 °F 9.1 °F 1009.4 in SE 31.5 mph 31.5 mph 44 % 0.0 in 870.0 W/m2 CLR
14:46 21.7 °F 8.9 °F 1009.4 in SE 37.0 mph 37.0 mph 44 % 0.0 in 875.0 W/m2 CLR
14:51 21.9 °F 8.7 °F 1009.4 in East 33.3 mph 33.3 mph 43 % 0.0 in 877.0 W/m2 CLR
14:56 22.1 °F 8.6 °F 1009.0 in ESE 42.6 mph 42.6 mph 42 % 0.0 in 867.0 W/m2 CLR
15:01 21.8 °F 8.7 °F 1009.0 in SE 37.0 mph 37.0 mph 43 % 0.0 in 858.0 W/m2 CLR
15:06 21.7 °F 8.9 °F 1009.0 in ESE 38.9 mph 38.9 mph 44 % 0.0 in 853.0 W/m2 CLR
15:11 21.8 °F 9.3 °F 1009.0 in SE 31.5 mph 31.5 mph 45 % 0.0 in 835.0 W/m2 CLR
15:16 22.1 °F 8.9 °F 1008.7 in SE 42.6 mph 42.6 mph 43 % 0.0 in 838.0 W/m2 CLR
15:21 21.9 °F 9.1 °F 1008.7 in ESE 35.2 mph 35.2 mph 44 % 0.0 in 830.0 W/m2 CLR
15:26 22.1 °F 9.3 °F 1008.4 in SSE 31.5 mph 31.5 mph 44 % 0.0 in 823.0 W/m2 CLR
15:31 21.8 °F 9.3 °F 1008.4 in ESE 37.0 mph 37.0 mph 45 % 0.0 in 816.0 W/m2 CLR
15:36 21.8 °F 9.7 °F 1008.4 in ESE 37.0 mph 37.0 mph 46 % 0.0 in 803.0 W/m2 CLR
15:41 21.9 °F 9.7 °F 1008.0 in SE 40.7 mph 40.7 mph 46 % 0.0 in 795.0 W/m2 CLR
15:42 21.9 °F 9.7 °F 1008.0 in SE 40.7 mph 40.7 mph 46 % 0.0 in 795.0 W/m2 CLR
15:47 21.8 °F 9.7 °F 1008.0 in ESE 43.4 mph 43.4 mph 46 % 0.0 in 791.0 W/m2 CLR
15:52 21.8 °F 9.7 °F 1008.0 in ESE 42.6 mph 42.6 mph 46 % 0.0 in 782.0 W/m2 CLR
15:57 21.7 °F 9.6 °F 1008.0 in SSE 33.8 mph 33.8 mph 46 % 0.0 in 775.0 W/m2 CLR
16:02 21.8 °F 9.4 °F 1008.0 in ESE 42.6 mph 42.6 mph 45 % 0.0 in 765.0 W/m2 CLR
16:07 21.7 °F 8.9 °F 1008.0 in SE 42.6 mph 42.6 mph 44 % 0.0 in 758.0 W/m2 CLR
16:12 21.6 °F 8.8 °F 1008.4 in SE 44.4 mph 44.4 mph 44 % 0.0 in 749.0 W/m2 CLR
16:17 21.3 °F 8.5 °F 1008.4 in SE 42.6 mph 42.6 mph 44 % 0.0 in 737.0 W/m2 CLR
16:22 21.4 °F 8.7 °F 1008.4 in SSE 33.3 mph 33.3 mph 44 % 0.0 in 726.0 W/m2 CLR
16:27 21.4 °F 8.6 °F 1008.4 in ESE 33.3 mph 33.3 mph 44 % 0.0 in 717.0 W/m2 CLR
16:32 21.4 °F 8.9 °F 1008.4 in ESE 35.2 mph 35.2 mph 45 % 0.0 in 710.0 W/m2 CLR
16:37 21.6 °F 9.2 °F 1008.4 in SE 20.9 mph 23.2 mph 45 % 0.0 in 700.0 W/m2 CLR
16:42 21.7 °F 9.2 °F 1008.7 in ESE 31.5 mph 31.5 mph 45 % 0.0 in 687.0 W/m2 CLR
16:47 21.8 °F 9.3 °F 1008.4 in SE 29.6 mph 29.6 mph 45 % 0.0 in 679.0 W/m2 CLR
16:52 21.7 °F 8.9 °F 1008.0 in SE 31.5 mph 31.5 mph 44 % 0.0 in 668.0 W/m2 CLR
16:57 21.3 °F 8.5 °F 1008.0 in ESE 42.6 mph 42.6 mph 44 % 0.0 in 659.0 W/m2 CLR
17:02 21.4 °F 8.7 °F 1008.0 in SE 40.7 mph 40.7 mph 44 % 0.0 in 652.0 W/m2 CLR
17:07 21.3 °F 8.2 °F 1008.0 in SE 40.7 mph 40.7 mph 43 % 0.0 in 650.0 W/m2 CLR
17:12 21.1 °F 8.4 °F 1008.0 in SE 38.6 mph 38.6 mph 44 % 0.0 in 598.0 W/m2 CLR
17:17 21.2 °F 8.4 °F 1008.0 in ESE 29.6 mph 29.6 mph 44 % 0.0 in 642.0 W/m2 CLR
17:22 21.3 °F 8.2 °F 1008.0 in SE 37.0 mph 37.0 mph 43 % 0.0 in 638.0 W/m2 CLR
17:27 21.6 °F 8.4 °F 1008.0 in ESE 25.9 mph 25.9 mph 43 % 0.0 in 564.0 W/m2 CLR
17:32 21.4 °F 8.6 °F 1008.0 in SE 31.5 mph 31.5 mph 44 % 0.0 in 290.0 W/m2 CLR
17:37 21.4 °F 8.6 °F 1008.0 in ESE 18.5 mph 18.5 mph 44 % 0.0 in 642.0 W/m2 CLR
17:42 21.8 °F 8.7 °F 1008.0 in SSE 33.3 mph 33.3 mph 43 % 0.0 in 568.0 W/m2 CLR
17:47 21.6 °F 8.8 °F 1008.0 in SE 22.2 mph 22.2 mph 44 % 0.0 in 563.0 W/m2 CLR
17:52 21.7 °F 9.2 °F 1007.7 in SE 31.5 mph 31.5 mph 45 % 0.0 in 471.0 W/m2 CLR
17:57 21.8 °F 9.0 °F 1007.7 in SE 27.8 mph 27.8 mph 44 % 0.0 in 418.0 W/m2 CLR
18:02 21.6 °F 9.2 °F 1007.7 in SE 29.6 mph 29.6 mph 45 % 0.0 in 301.0 W/m2 CLR
18:07 21.6 °F 9.1 °F 1007.7 in SSE 20.4 mph 20.4 mph 45 % 0.0 in 223.0 W/m2 CLR
18:12 21.6 °F 9.5 °F 1007.7 in SSE 20.4 mph 20.4 mph 46 % 0.0 in 265.0 W/m2 CLR
18:17 21.7 °F 9.6 °F 1007.3 in SE 24.1 mph 24.1 mph 46 % 0.0 in 439.0 W/m2 CLR
18:22 21.9 °F 10.1 °F 1007.3 in SE 17.7 mph 17.7 mph 47 % 0.0 in 485.0 W/m2 CLR
18:27 22.0 °F 10.2 °F 1007.3 in ESE 24.1 mph 24.1 mph 47 % 0.0 in 466.0 W/m2 CLR
18:32 21.9 °F 10.4 °F 1007.3 in SE 24.1 mph 24.1 mph 48 % 0.0 in 330.0 W/m2 CLR
18:38 21.7 °F 10.8 °F 1007.3 in SE 18.5 mph 18.5 mph 50 % 0.0 in 348.0 W/m2 CLR
18:43 21.6 °F 11.3 °F 1007.3 in SE 24.1 mph 24.1 mph 52 % 0.0 in 329.0 W/m2 CLR
18:47 21.3 °F 11.3 °F 1007.3 in ESE 20.4 mph 20.4 mph 53 % 0.0 in 367.0 W/m2 CLR
18:53 21.4 °F 11.7 °F 1007.3 in ESE 16.1 mph 16.1 mph 54 % 0.0 in 406.0 W/m2 CLR
18:58 21.2 °F 11.6 °F 1007.3 in SE 20.9 mph 20.9 mph 54 % 0.0 in 343.0 W/m2 CLR
19:03 21.1 °F 12.0 °F 1007.3 in ESE 24.1 mph 24.1 mph 56 % 0.0 in 352.0 W/m2 CLR
19:08 20.9 °F 12.1 °F 1007.3 in SE 24.1 mph 24.1 mph 57 % 0.0 in 287.0 W/m2 CLR
19:13 20.4 °F 12.4 °F 1007.0 in East 14.8 mph 14.8 mph 60 % 0.0 in 302.0 W/m2 CLR
19:18 20.2 °F 12.7 °F 1007.0 in ESE 18.5 mph 18.5 mph 62 % 0.0 in 272.0 W/m2 CLR
19:23 19.8 °F 12.8 °F 1007.0 in ESE 24.1 mph 24.1 mph 64 % 0.0 in 236.0 W/m2 CLR
19:28 19.7 °F 12.7 °F 1007.0 in SE 19.3 mph 21.2 mph 64 % 0.0 in 211.0 W/m2 CLR
19:33 19.6 °F 12.8 °F 1007.0 in ESE 16.7 mph 16.7 mph 65 % 0.0 in 190.0 W/m2 CLR
19:38 19.6 °F 12.8 °F 1007.0 in SSE 16.7 mph 16.7 mph 65 % 0.0 in 167.0 W/m2 CLR
19:43 19.4 °F 12.6 °F 1007.0 in SE 18.5 mph 18.5 mph 65 % 0.0 in 151.0 W/m2 CLR
19:48 19.3 °F 12.6 °F 1007.0 in SE 22.2 mph 22.2 mph 65 % 0.0 in 134.0 W/m2 CLR
19:53 19.1 °F 12.6 °F 1007.0 in SE 18.5 mph 18.5 mph 66 % 0.0 in 116.0 W/m2 CLR
19:58 19.0 °F 12.7 °F 1007.0 in SE 11.1 mph 11.1 mph 67 % 0.0 in 98.0 W/m2 CLR
20:03 18.8 °F 12.6 °F 1007.3 in ESE 16.7 mph 16.7 mph 67 % 0.0 in 60.0 W/m2 SCT
20:08 18.6 °F 12.6 °F 1007.0 in SE 16.7 mph 16.7 mph 68 % 0.0 in 30.0 W/m2 BKN
20:13 18.4 °F 12.7 °F 1007.0 in SE 16.1 mph 16.1 mph 69 % 0.0 in 25.0 W/m2 BKN
20:18 18.4 °F 12.6 °F 1007.0 in East 5.6 mph 5.6 mph 69 % 0.0 in 23.0 W/m2 BKN
20:23 18.3 °F 12.5 °F 1007.3 in ESE 6.4 mph 6.4 mph 69 % 0.0 in 18.0 W/m2 BKN
20:28 18.1 °F 12.5 °F 1007.3 in ESE 13.0 mph 13.0 mph 70 % 0.0 in 21.0 W/m2 BKN
20:33 17.9 °F 12.3 °F 1007.3 in SE 8.0 mph 8.0 mph 70 % 0.0 in 14.0 W/m2 BKN
20:38 17.8 °F 12.3 °F 1007.3 in ESE 13.0 mph 13.0 mph 70 % 0.0 in 14.0 W/m2 BKN
20:43 17.8 °F 12.2 °F 1007.3 in SE 7.4 mph 7.4 mph 70 % 0.0 in 12.0 W/m2 BKN
20:48 17.7 °F 12.3 °F 1007.3 in Calm     71 % 0.0 in 9.0 W/m2 BKN
20:53 17.6 °F 12.3 °F 1007.3 in Calm     71 % 0.0 in 7.0 W/m2 BKN
20:58 17.5 °F 12.2 °F 1007.3 in Calm     71 % 0.0 in 0.0 W/m2 OVC
21:03 17.4 °F 12.1 °F 1007.3 in Calm     71 % 0.0 in 0.0 W/m2 OVC
21:08 17.3 °F 12.2 °F 1007.3 in Calm     72 % 0.0 in 0.0 W/m2 OVC
21:13 17.2 °F 12.1 °F 1007.3 in Calm     72 % 0.0 in 0.0 W/m2 CLR
21:18 17.1 °F 12.0 °F 1007.3 in Calm     72 % 0.0 in 0.0 W/m2 CLR
21:23 17.0 °F 11.9 °F 1007.3 in East 3.2 mph 3.2 mph 72 % 0.0 in 0.0 W/m2 CLR
21:28 16.8 °F 11.9 °F 1007.3 in Calm     73 % 0.0 in 0.0 W/m2 CLR
21:33 16.7 °F 11.8 °F 1007.3 in Calm     73 % 0.0 in 0.0 W/m2 CLR
21:38 16.7 °F 12.0 °F 1007.3 in Calm     74 % 0.0 in 0.0 W/m2 CLR
21:43 16.6 °F 11.9 °F 1007.3 in Calm     74 % 0.0 in 0.0 W/m2 CLR
21:44 16.6 °F 11.9 °F 1007.3 in Calm     74 % 0.0 in 0.0 W/m2 CLR
21:49 16.5 °F 11.8 °F 1007.7 in Calm     74 % 0.0 in 0.0 W/m2 CLR
21:54 16.4 °F 11.8 °F 1007.7 in ESE 9.3 mph 9.3 mph 74 % 0.0 in 0.0 W/m2 CLR
21:59 16.4 °F 11.8 °F 1008.0 in SE 9.3 mph 9.3 mph 74 % 0.0 in 0.0 W/m2 CLR
22:04 16.4 °F 12.0 °F 1008.0 in SSE 11.1 mph 11.1 mph 75 % 0.0 in 0.0 W/m2 CLR
22:09 16.4 °F 11.9 °F 1008.0 in SE 7.4 mph 7.4 mph 75 % 0.0 in 0.0 W/m2 CLR
22:14 16.4 °F 11.9 °F 1008.0 in Calm     75 % 0.0 in 0.0 W/m2 CLR
22:19 16.3 °F 11.9 °F 1008.0 in Calm     75 % 0.0 in 0.0 W/m2 CLR
22:24 16.3 °F 11.9 °F 1008.0 in Calm     75 % 0.0 in 0.0 W/m2 CLR
22:29 16.3 °F 11.8 °F 1008.0 in Calm     75 % 0.0 in 0.0 W/m2 CLR
22:34 16.4 °F 11.7 °F 1008.0 in SSE 9.3 mph 9.3 mph 74 % 0.0 in 0.0 W/m2 CLR
22:39 16.4 °F 11.8 °F 1008.0 in SE 8.0 mph 8.0 mph 74 % 0.0 in 0.0 W/m2 CLR
22:44 16.4 °F 11.8 °F 1008.0 in Calm     74 % 0.0 in 0.0 W/m2 CLR
22:49 16.4 °F 11.8 °F 1008.0 in Calm     74 % 0.0 in 0.0 W/m2 CLR
22:54 16.4 °F 11.8 °F 1008.0 in Calm     74 % 0.0 in 0.0 W/m2 CLR
22:59 16.4 °F 11.7 °F 1008.0 in Calm     74 % 0.0 in 0.0 W/m2 CLR
23:04 16.3 °F 11.9 °F 1008.4 in Calm     75 % 0.0 in 0.0 W/m2 CLR
23:09 16.3 °F 11.7 °F 1008.4 in Calm     74 % 0.0 in 0.0 W/m2 CLR
23:14 16.3 °F 11.7 °F 1008.4 in Calm     74 % 0.0 in 0.0 W/m2 CLR
23:19 16.2 °F 11.6 °F 1008.4 in Calm     74 % 0.0 in 0.0 W/m2 CLR
23:24 16.1 °F 11.6 °F 1008.4 in Calm     75 % 0.0 in 0.0 W/m2 CLR
23:29 15.7 °F 11.5 °F 1008.7 in NW 13.0 mph 13.0 mph 76 % 0.0 in 0.0 W/m2 CLR
23:34 15.4 °F 11.4 °F 1008.7 in Calm     77 % 0.0 in 0.0 W/m2 CLR
23:39 15.4 °F 11.4 °F 1008.7 in Calm     77 % 0.0 in 0.0 W/m2 CLR
23:44 15.4 °F 11.4 °F 1008.7 in Calm     77 % 0.0 in 0.0 W/m2 CLR
23:49 15.3 °F 11.3 °F 1008.4 in Calm     77 % 0.0 in 0.0 W/m2 CLR
23:54 15.2 °F 11.4 °F 1008.7 in Calm     78 % 0.0 in 0.0 W/m2 CLR
23:59 15.1 °F 11.3 °F 1008.7 in Calm     78 % 0.0 in 0.0 W/m2 CLR
Lo Temps de Massalio
Compliments of Weather Underground - 1.25 mb